User: anonymous   Login
Location: Unspecified
(0.0000°N, 0.0000°E)
Time: 03:43:16
(UTC+00:00)
Language:

OFEQ 9 - Orbit

View from above orbital plane
View from above orbital plane
View from above satellite
View from above satellite

Ground track
Ground track

The orbit data is extracted from the following two-line orbital elements,

1 36608U 10031A   18287.16016518 0.00001700  00000-0  67790-4 0    06
2 36608 141.7365 206.8861 0005000  44.0702 315.9290 15.24294258    06
Epoch (UTC): 14 October 2018 03:50:38
Eccentricity: 0.0005000
inclination: 141.7365°
perigee height: 489 km
apogee height: 496 km
right ascension of ascending node: 206.8861°
argument of perigee: 44.0702°
revolutions per day: 15.24294258
mean anomaly at epoch: 315.9290°
orbit number at epoch: 0

The dashed part of the orbit path shows where the satellite is in the earth's shadow,  

DLR